Home   Weather   Sherbrooke   Past weeks

Flag for Canada Past Weather in Sherbrooke, Quebec, Canada — Yesterday and Last 2 Weeks

Now
32 °F

Light snow. Low clouds.


Feels Like: 24 °F
Forecast: 28 / 32 °F
Wind: 9 mph from West

Location: Sherbrooke

Current Time: Dec 2, 2016 at 11:58:12 pm

Latest Report: Dec 2, 2016 at 11:00 pm


Visibility: 3 mi

Pressure: 29.68 "Hg

Humidity: 100%

Dew Point: 32 °F

Location of SherbrookeLocation

Past Weather in Sherbrooke — Graph

°F

Sherbrooke Temperature Yesterday

Maximum temperature yesterday: 41 °F (at 1:45 pm)
Minimum temperature yesterday: 36 °F (at 7:48 am)
Average temperature yesterday: 38 °F

High & Low Weather Summary for the Past Weeks

 TemperatureHumidityPressure
High61 °F (Nov 19, 2:00 pm)100% (Nov 18, 2:48 am)30.36 "Hg (Nov 18, 2:48 am)
Low23 °F (Nov 29, 12:00 am)48% (Nov 19, 4:00 pm)29.14 "Hg (Nov 20, 2:00 pm)
Average33 °F92%29.89 "Hg
* Reported Nov 17 10:00 pm — Dec 2 10:57 pm, Sherbrooke, Weather by CustomWeather, © 2016

Note: Actual official high and low records may vary slightly from our data, if they occured in-between our weather recording intervals... More about our weather records

Advertising

Sherbrooke Weather History for the Previous 24 Hours

Scroll right to see more
 ConditionsComfort  
Time TempWeatherWind HumidityBarometerVisibility
10:57 pm
Fri, Dec 2
32 °FLight snow. Low clouds.9 mph100%29.68 "Hg3 mi
10:00 pm32 °FLight snow. Low clouds.8 mph100%29.67 "Hg4 mi
9:49 pm32 °FLight snow. Low clouds.7 mph100%29.67 "Hg3 mi
9:00 pm32 °FLight snow. Mostly cloudy.12 mph100%29.67 "Hg9 mi
8:59 pm32 °FLight snow. Mostly cloudy.10 mph100%29.67 "Hg9 mi
8:00 pm32 °FLight snow. Mostly cloudy.9 mph100%29.68 "Hg2 mi
7:50 pm32 °FLight snow. Mostly cloudy.9 mph100%29.67 "Hg2 mi
7:00 pm34 °FLight mixture of precip. Mostly cloudy.9 mph93%29.67 "Hg9 mi
6:00 pm34 °FLight rain. Mostly cloudy.7 mph93%29.67 "Hg9 mi
5:00 pm36 °FOvercast.10 mph87%29.65 "Hg9 mi
4:00 pm36 °FBroken clouds.9 mph93%29.64 "Hg9 mi
3:00 pm39 °FLight rain. Overcast.12 mph93%29.63 "Hg9 mi
2:00 pm39 °FLight rain. Overcast.8 mph93%29.62 "Hg9 mi
1:00 pm39 °FOvercast.8 mph93%29.62 "Hg9 mi
12:59 pm39 °FOvercast.6 mph93%29.62 "Hg9 mi
12:00 pm39 °FOvercast.8 mph93%29.63 "Hg9 mi
11:00 am39 °FLight rain. Mostly cloudy.8 mph93%29.64 "Hg9 mi
10:47 am39 °FLight rain. Overcast.8 mph93%29.64 "Hg9 mi
10:00 am37 °FLight rain. Mostly cloudy.7 mph100%29.66 "Hg9 mi
9:00 am37 °FOvercast.6 mph93%29.66 "Hg9 mi
8:00 am37 °FMostly cloudy.6 mph93%29.66 "Hg9 mi
7:00 am36 °FLight rain. Mostly cloudy.5 mph100%29.66 "Hg9 mi
6:00 am37 °FLight rain. Fog.6 mph93%29.65 "Hg6 mi
5:56 am36 °FLight rain. Fog.6 mph100%29.65 "Hg5 mi
5:00 am37 °FMostly cloudy.7 mph93%29.64 "Hg9 mi
4:03 am37 °FOvercast.10 mph93%29.63 "Hg9 mi
3:00 am37 °FLight rain. Overcast.7 mph93%29.62 "Hg9 mi
2:00 am37 °FLight rain. Low clouds.6 mph93%29.62 "Hg9 mi
1:00 am37 °FLight rain. Low clouds.8 mph93%29.59 "Hg9 mi
12:00 am37 °FLight rain. Fog.9 mph93%29.59 "Hg4 mi
11:48 pm
Thu, Dec 1
37 °FLight rain. Fog.7 mph93%29.59 "Hg5 mi
11:00 pm37 °FLight rain. Low clouds.10 mph93%29.58 "Hg8 mi
Weather by CustomWeather, © 2016

See weather overviewHow to use our weather pages